Погода в Смольчеве-Малиновском

Россия / Республика Адыгея     44°51′58″N   40°25′47″E
темп.,
°C
ветер,
м/с
пор.,
м/с
влажн.,
%
обл.,
%
осадки,
мм/ч
давл.,
гПа
погр.,
м
6 мая, чт
чт600:00+8вюв37860 0.0 1016110
03:00+7вюв36912 0.0 1014100
06:00+8юв2288100 0.0 101453
09:00+15вюв227095 0.0 1013428
12:00+19сз226116 0.0 1012999
15:00+20ссз225855 0.0 10121292
18:00+18ссз2271100 0.0 101222
21:00+13всв1180100 0.0 101311
7 мая, пт
пт700:00+13з2281100 0.0 101415
03:00+11зюз349395 0.1 101566
06:00+11з258599 0.0 1017141
09:00+16з336599 0.0 1017460
12:00+18зсз4559100 0.0 10171023
15:00+19сз345543 0.0 10171285
18:00+18ссз227290 0.0 101754
21:00+13ююв22725 0.0 101811
8 мая, сб
сб800:00+12юв33835 0.0 101824
03:00+11юв339019 0.0 101740
06:00+11ююв228926 0.0 101645
09:00+18юв117184 0.0 1015430
12:00+21в2262100 0.0 1013892
15:00+23с115594 0.0 10121307
18:00+22ссв116912 0.0 101128
21:00+16вюв11823 0.0 101112
9 мая, вс
вс900:00+15ю338690 0.0 101023
03:00+15юз2280100 0.0 100931
06:00+13зсз51273100 0.1 1011452
09:00+10з91497100 1.4 1014673
12:00+7зсз81396100 4.2 1019951
15:00+10зсз8118093 4.8 10221288
18:00+11зсз577310 0.4 1023831
21:00+6з38825 0.4 1025127
10 мая, пн
пн1000:00+5зюз49875 0.0 1025153
03:00+5зюз410825 0.0 1025204
06:00+5зюз38816 0.0 1026217
09:00+11зсз57665 0.0 10251161
12:00+12зсз686448 0.7 10231550
15:00+13зсз811678 2.0 10221608
18:00+11зсз6107194 0.7 1021768
21:00+7зюз4107898 0.7 1021210